カタログに戻る

COSMOS 1275 DEB

運用中PO
NORAD 39959·DEBRIS·🇷🇺 Russia

打ち上げ Jun 4, 1981 から Plesetsk Cosmodrome

Loading…

次のパス (今後24時間)

TLE

古いSource: Space-Track

元期: Aug 27, 2026, 15:00 UTC

1 39959U 81053NV  26239.62567281  .00000079  00000-0  65881-4 0  9999
2 39959  82.9610 205.3520 0038049 311.0916  48.6956 13.75520801613667

AllMySatでCOSMOS 1275 DEBをリアルタイム追跡

Download on the App Store